Location: Centerville
(32.8776°N, 96.6203°W)
Time: 05:18:52
(UTC+00:00)

Cosmos 1850 Rocket - Pass Details

Date: 17 June 2021
Orbit: 754 x 785 km, 74.0° (Epoch: 29 July)

Event Time Altitude Azimuth Distance (km) Brightness Sun altitude
Rises 03:48:44 0° 347° (NNW) 3,261 8.3 -22.2°
Reaches altitude 10° 03:51:10 10° 350° (N) 2,326 7.3 -22.5°
Maximum altitude 03:56:24 64° 72° (ENE) 851 4.0 -23.2°
Enters shadow 03:57:07 57° 113° (ESE) 900 4.0 -23.3°
